Location: Vigo di Fassa
(46.4167°N, 11.6667°E)
Time: 14:32:49
(UTC+00:00)

Cosmos 1844 Rocket - Pass Details

Date: 03 March 2021
Orbit: 826 x 843 km, 71.0° (Epoch: 17 April)

Event Time Altitude Azimuth Distance (km) Brightness Sun altitude
Rises 18:22:15 0° 333° (NNW) 3,375 6.3 -14.5°
Reaches altitude 10° 18:24:42 10° 335° (NNW) 2,437 5.5 -15.0°
Maximum altitude 18:30:18 82° 64° (ENE) 840 2.6 -15.9°
Drops below altitude 10° 18:35:52 10° 152° (SSE) 2,424 4.7 -16.9°
Enters shadow 18:35:53 10° 152° (SSE) 2,428 4.7 -16.9°
